Home   Weather   Vevay   Past weeks

Flag for USA Past Weather in Vevay, Indiana, USA — Yesterday and Last 2 Weeks

Now
39 °F

Overcast.


Feels Like: 33 °F
Forecast: 33 / 44 °F
Wind: 9 mph from West

Location: Cincinnati / Northern Kentucky International Airport

Current Time: Dec 2, 2016 at 5:19:57 pm

Latest Report: Dec 2, 2016 at 4:52 pm


Visibility: 10 mi

Pressure: 30.25 "Hg

Humidity: 70%

Dew Point: 30 °F

Location of VevayLocation

Past Weather in Vevay — Graph

°F

Vevay Temperature Yesterday

Maximum temperature yesterday: 44 °F (at 1:52 pm)
Minimum temperature yesterday: 32 °F (at 9:52 pm)
Average temperature yesterday: 39 °F

High & Low Weather Summary for the Past Weeks

 TemperatureHumidityPressure
High76 °F (Nov 18, 1:52 pm)100% (Nov 24, 2:52 am)30.40 "Hg (Nov 24, 2:52 am)
Low26 °F (Nov 20, 6:52 am)30% (Nov 18, 4:52 pm)29.43 "Hg (Nov 28, 8:52 pm)
Average44 °F72%30.07 "Hg
* Reported Nov 17 3:52 pm — Dec 2 3:52 pm, Vevay, Weather by CustomWeather, © 2016

Note: Actual official high and low records may vary slightly from our data, if they occured in-between our weather recording intervals... More about our weather records

Advertising

Vevay Weather History for the Previous 24 Hours

Scroll right to see more
 ConditionsComfort  
Time TempWeatherWind HumidityBarometerVisibility
3:52 pm
Fri, Dec 2
40 °FOvercast.8 mph68%30.24 "Hg10 mi
2:52 pm39 °FMore clouds than sun.10 mph67%30.21 "Hg10 mi
1:52 pm39 °FOvercast.9 mph70%30.20 "Hg10 mi
12:52 pm39 °FMostly cloudy.8 mph70%30.21 "Hg10 mi
11:52 am38 °FMostly cloudy.8 mph73%30.22 "Hg10 mi
10:52 am37 °FOvercast.6 mph76%30.21 "Hg9 mi
9:52 am37 °FOvercast.10 mph73%30.19 "Hg9 mi
8:52 am37 °FOvercast.13 mph73%30.18 "Hg10 mi
7:52 am36 °FOvercast.12 mph75%30.16 "Hg10 mi
6:52 am36 °FOvercast.9 mph79%30.15 "Hg10 mi
5:52 am36 °FOvercast.7 mph79%30.13 "Hg10 mi
4:52 am36 °FOvercast.6 mph79%30.11 "Hg10 mi
3:52 am36 °FOvercast.10 mph79%30.10 "Hg10 mi
2:52 am36 °FOvercast.5 mph79%30.09 "Hg10 mi
1:52 am35 °FOvercast.5 mph78%30.08 "Hg10 mi
12:52 am34 °FOvercast.3 mph82%30.06 "Hg10 mi
11:52 pm
Thu, Dec 1
35 °FPassing clouds.3 mph75%30.06 "Hg10 mi
10:52 pm34 °FOvercast.6 mph79%30.07 "Hg10 mi
9:52 pm32 °FPassing clouds.6 mph82%30.06 "Hg10 mi
8:52 pm33 °FClear.6 mph78%30.04 "Hg10 mi
7:52 pm35 °FClear.7 mph72%30.03 "Hg10 mi
6:52 pm37 °FClear.8 mph70%30.01 "Hg10 mi
5:52 pm37 °FPassing clouds.7 mph70%30.00 "Hg10 mi
Weather by CustomWeather, © 2016

See weather overviewHow to use our weather pages